sat.trackr.live / text

‹ back to catalog

STARLINK-30325

NORAD 57717 · 2023-129V

PAYLOAD ACTIVE UNKNOWN

§ Identity

Operator
Country
US
Launch date
2023-08-27
Launch site
AFETR
Launch vehicle
Mass (kg)
RCS (m²)

Purposes: comms

External: N2YO · Heavens-Above · Gunter

§ Orbital elements

Epoch: 2026-09-20T22:50:21.107616Z

Period
94.27 min
Inclination
43.0017°
Eccentricity
0.0001264
Mean motion
15.27583911 rev/d
Perigee alt
482.2 km
Apogee alt
483.9 km
Semi-major
6,861.2 km
B*
6.0582e-5
RAAN
95.3092°
Arg perigee
266.6537°
Mean anomaly
93.4170°
Rev number
17,054

§ Raw data

STARLINK-303251 57717U 23129V   26263.95163319  .00001406  00000+0  60582-4 0  99952 57717  43.0017  95.3092 0001264 266.6537  93.4170 15.27583911170543

JSON: /api/v1/satellites/57717 · /tle

For live sub-satellite position, see the globe view (requires WebGL).

§ Visibility from observer

Set your observer location to see the next 7 days of passes ≥ 10°. The values pass through the URL so the page stays shareable.

No JS? Fill the form by hand. The geolocation button needs JavaScript.